When you browse on this site, cookies collect data to enhance your experience and personalize the content and advertising you see.
Visit our Privacy Policy to learn more. By continuing to use the site, you agree to this use of cookies and data.
  • In Hungary
  • List of Countries
  • For 7 days
  • Water Temperature
  • Weather Map
  • News
  • Weather Widgets
  • user-avatar
    Login

    Hourly Weather Slovyansk

    Today, 22 November, Friday

    Time Temperature Precipitation Wind Pressure Humidity
    00:00 -13°C° 0 mm 7 mps 775 mmHg 39%
    01:00 -13°C° 0 mm 7 mps 775 mmHg 43%
    02:00 -13°C° 0 mm 7 mps 775 mmHg 46%
    03:00 -12°C° 0 mm 6 mps 775 mmHg 50%
    04:00 -14°C° 0 mm 7 mps 775 mmHg 51%
    05:00 -14°C° 0 mm 7 mps 775 mmHg 51%
    06:00 -14°C° 0 mm 7 mps 775 mmHg 52%
    07:00 -14°C° 0 mm 7 mps 775 mmHg 51%
    08:00 -13°C° 0 mm 8 mps 775 mmHg 50%
    09:00 -13°C° 0 mm 8 mps 775 mmHg 48%
    10:00 -12°C° 0 mm 8 mps 775 mmHg 44%
    11:00 -11°C° 0 mm 8 mps 775 mmHg 40%
    12:00 -8°C° 0 mm 8 mps 774 mmHg 35%
    13:00 -8°C° 0 mm 8 mps 774 mmHg 34%
    14:00 -7°C° 0 mm 8 mps 773 mmHg 33%
    15:00 -7°C° 0 mm 8 mps 773 mmHg 31%
    16:00 -8°C° 0 mm 7 mps 773 mmHg 33%
    17:00 -8°C° 0 mm 7 mps 773 mmHg 35%
    18:00 -9°C° 0 mm 7 mps 773 mmHg 37%
    19:00 -9°C° 0 mm 7 mps 773 mmHg 36%
    20:00 -11°C° 0 mm 7 mps 773 mmHg 36%
    21:00 -10°C° 0 mm 6 mps 773 mmHg 36%
    22:00 -11°C° 0 mm 7 mps 773 mmHg 37%
    23:00 -12°C° 0 mm 7 mps 773 mmHg 39%

    Tomorrow, 23 November, Saturday

    Time Temperature Precipitation Wind Pressure Humidity
    00:00 -12°C° 0 mm 7 mps 772 mmHg 41%
    01:00 -12°C° 0 mm 7 mps 772 mmHg 42%
    02:00 -11°C° 0 mm 6 mps 772 mmHg 44%
    03:00 -11°C° 0 mm 6 mps 772 mmHg 45%
    04:00 -11°C° 0 mm 6 mps 772 mmHg 45%
    05:00 -12°C° 0 mm 6 mps 772 mmHg 45%
    06:00 -12°C° 0 mm 6 mps 771 mmHg 45%
    07:00 -11°C° 0 mm 6 mps 772 mmHg 44%
    08:00 -12°C° 0 mm 7 mps 772 mmHg 42%
    09:00 -12°C° 0 mm 7 mps 772 mmHg 41%
    10:00 -9°C° 0 mm 7 mps 772 mmHg 36%
    11:00 -8°C° 0 mm 7 mps 771 mmHg 32%
    12:00 -6°C° 0 mm 7 mps 771 mmHg 27%
    13:00 -4°C° 0 mm 7 mps 770 mmHg 26%
    14:00 -4°C° 0 mm 7 mps 770 mmHg 25%
    15:00 -3°C° 0 mm 7 mps 770 mmHg 23%
    16:00 -4°C° 0 mm 7 mps 769 mmHg 25%
    17:00 -5°C° 0 mm 6 mps 769 mmHg 26%
    18:00 -6°C° 0 mm 6 mps 769 mmHg 28%
    19:00 -6°C° 0 mm 6 mps 769 mmHg 29%
    20:00 -6°C° 0 mm 6 mps 769 mmHg 30%
    21:00 -8°C° 0 mm 6 mps 770 mmHg 32%
    22:00 -8°C° 0 mm 6 mps 769 mmHg 33%
    23:00 -8°C° 0 mm 6 mps 769 mmHg 35%

    Day after tomorrow, 24 November, Sunday

    Time Temperature Precipitation Wind Pressure Humidity
    00:00 -8°C° 0 mm 6 mps 769 mmHg 36%
    01:00 -9°C° 0 mm 6 mps 769 mmHg 38%
    02:00 -9°C° 0 mm 6 mps 769 mmHg 39%
    03:00 -9°C° 0 mm 6 mps 769 mmHg 40%
    04:00 -9°C° 0 mm 6 mps 769 mmHg 41%
    05:00 -9°C° 0 mm 6 mps 768 mmHg 42%
    06:00 -9°C° 0 mm 6 mps 768 mmHg 43%
    07:00 -9°C° 0 mm 6 mps 768 mmHg 43%
    08:00 -9°C° 0 mm 6 mps 768 mmHg 43%
    09:00 -9°C° 0 mm 6 mps 769 mmHg 43%
    10:00 -6°C° 0 mm 6 mps 768 mmHg 39%
    11:00 -6°C° 0 mm 7 mps 768 mmHg 36%
    12:00 -3°C° 0 mm 7 mps 768 mmHg 32%
    13:00 -3°C° 0 mm 7 mps 767 mmHg 31%
    14:00 -2°C° 0 mm 7 mps 767 mmHg 30%
    15:00 -2°C° 0 mm 7 mps 767 mmHg 29%
    16:00 -3°C° 0 mm 6 mps 767 mmHg 31%
    17:00 -4°C° 0 mm 6 mps 767 mmHg 34%
    18:00 -5°C° 0 mm 5 mps 766 mmHg 37%
    19:00 -5°C° 0 mm 5 mps 766 mmHg 40%
    20:00 -5°C° 0 mm 5 mps 766 mmHg 44%
    21:00 -6°C° 0 mm 5 mps 767 mmHg 47%
    22:00 -6°C° 0 mm 5 mps 766 mmHg 50%
    23:00 -6°C° 0 mm 5 mps 766 mmHg 54%

    25 November, Monday

    Time Temperature Precipitation Wind Pressure Humidity
    00:00 -6°C° 0 mm 5 mps 766 mmHg 57%
    01:00 -6°C° 0 mm 5 mps 766 mmHg 61%
    02:00 -7°C° 0 mm 5 mps 766 mmHg 65%
    03:00 -7°C° 0 mm 5 mps 765 mmHg 69%
    04:00 -7°C° 0 mm 5 mps 765 mmHg 71%
    05:00 -7°C° 0 mm 5 mps 765 mmHg 74%
    06:00 -7°C° 0 mm 5 mps 765 mmHg 76%
    07:00 -8°C° 0 mm 6 mps 765 mmHg 75%
    08:00 -8°C° 0 mm 6 mps 765 mmHg 73%
    09:00 -8°C° 0 mm 6 mps 765 mmHg 72%
    10:00 -5°C° 0 mm 6 mps 765 mmHg 68%
    11:00 -3°C° 0 mm 6 mps 764 mmHg 63%
    12:00 -2°C° 0 mm 6 mps 764 mmHg 59%
    13:00 -1°C° 0 mm 6 mps 764 mmHg 58%
    14:00 -1°C° 0 mm 6 mps 763 mmHg 56%
    15:00 +1°C° 0 mm 6 mps 763 mmHg 55%
    16:00 -1°C° 0 mm 6 mps 763 mmHg 57%
    17:00 -2°C° 0 mm 5 mps 763 mmHg 59%
    18:00 -4°C° 0 mm 5 mps 763 mmHg 60%
    19:00 -4°C° 0 mm 5 mps 763 mmHg 59%
    20:00 -4°C° 0 mm 5 mps 763 mmHg 58%
    21:00 -5°C° 0 mm 5 mps 763 mmHg 58%
    22:00 -5°C° 0 mm 5 mps 762 mmHg 58%
    23:00 -5°C° 0 mm 5 mps 762 mmHg 59%

    26 November, Tuesday

    Time Temperature Precipitation Wind Pressure Humidity
    00:00 -6°C° 0 mm 5 mps 762 mmHg 59%
    01:00 -6°C° 0 mm 5 mps 762 mmHg 60%
    02:00 -6°C° 0 mm 5 mps 762 mmHg 61%
    03:00 -6°C° 0 mm 5 mps 762 mmHg 62%
    04:00 -6°C° 0 mm 5 mps 761 mmHg 64%
    05:00 -7°C° 0 mm 5 mps 761 mmHg 65%
    06:00 -7°C° 0 mm 5 mps 761 mmHg 67%
    07:00 -6°C° 0 mm 5 mps 761 mmHg 69%
    08:00 -6°C° 0 mm 5 mps 761 mmHg 71%
    09:00 -6°C° 0 mm 6 mps 761 mmHg 73%
    10:00 -5°C° 0 mm 5 mps 761 mmHg 75%
    11:00 -2°C° 0 mm 5 mps 760 mmHg 76%
    12:00 -1°C° 0 mm 5 mps 760 mmHg 78%
    13:00 0°C° 0 mm 5 mps 760 mmHg 77%
    14:00 0°C° 0 mm 5 mps 759 mmHg 76%
    15:00 0°C° 0 mm 5 mps 759 mmHg 75%
    16:00 0°C° 0 mm 5 mps 759 mmHg 76%
    17:00 0°C° 0 mm 5 mps 759 mmHg 77%
    18:00 0°C° 0 mm 4 mps 759 mmHg 77%
    19:00 -1°C° 0 mm 4 mps 759 mmHg 78%
    20:00 -1°C° 0 mm 5 mps 758 mmHg 78%
    21:00 -1°C° 0 mm 5 mps 758 mmHg 79%
    22:00 -2°C° 0 mm 5 mps 758 mmHg 81%
    23:00 -2°C° 0 mm 4 mps 758 mmHg 83%

    27 November, Wednesday

    Time Temperature Precipitation Wind Pressure Humidity
    00:00 -3°C° 0 mm 4 mps 758 mmHg 85%
    01:00 -3°C° 0 mm 4 mps 758 mmHg 86%
    02:00 -3°C° 0 mm 4 mps 758 mmHg 87%
    03:00 -3°C° 0 mm 4 mps 757 mmHg 87%
    04:00 -3°C° 0 mm 4 mps 757 mmHg 88%
    05:00 -3°C° 0 mm 4 mps 757 mmHg 89%
    06:00 -4°C° 0 mm 4 mps 757 mmHg 91%
    07:00 -3°C° 0 mm 4 mps 757 mmHg 90%
    08:00 -4°C° 0 mm 5 mps 757 mmHg 89%
    09:00 -2°C° 0 mm 5 mps 757 mmHg 89%
    10:00 -1°C° 0 mm 4 mps 757 mmHg 87%
    11:00 0°C° 0 mm 4 mps 757 mmHg 86%
    12:00 +2°C° 0 mm 3 mps 757 mmHg 84%
    13:00 +1°C° 0 mm 4 mps 756 mmHg 83%
    14:00 +1°C° 0 mm 4 mps 756 mmHg 83%
    15:00 +1°C° 0 mm 4 mps 756 mmHg 82%
    16:00 +1°C° 0.7 mm 4 mps 756 mmHg 85%
    17:00 0°C° 0.7 mm 4 mps 756 mmHg 88%
    18:00 0°C° 0.7 mm 4 mps 756 mmHg 92%
    19:00 0°C° 0.7 mm 4 mps 756 mmHg 92%
    20:00 +1°C° 0.7 mm 3 mps 756 mmHg 93%
    21:00 +1°C° 0.7 mm 3 mps 756 mmHg 93%
    22:00 +1°C° 0.1 mm 3 mps 756 mmHg 93%
    23:00 +3°C° 0.1 mm 2 mps 756 mmHg 93%
    Show more